Regional Weather Roundup
Issued by NWS

Home | Current Version | Previous Version | Graphics & Text | Print | Product List | Glossary On
Versions: 1 2 3 4 5 6 7 8 9 10 11 12 13 14 15 16 17 18 19 20 21 22 23 24 25 26 27 28 29 30 31 32 33 34 35 36 37 38 39 40 41 42 43 44 45 46 47 48 49 50
000
ASUS43 KMPX 281610
RWRMN
WEATHER ROUNDUP FOR MINNESOTA
NATIONAL WEATHER SERVICE TWIN CITIES/CHANHASSEN MN
1100 AM CDT THU AUG 28 2014


NOTE: "FAIR" INDICATES FEW OR NO CLOUDS BELOW 12,000 FEET WITH NO
SIGNIFICANT WEATHER AND/OR OBSTRUCTIONS TO VISIBILITY. N/A MEANS
CURRENT SKY AND/OR WEATHER CONDITIONS ARE NOT AVAILABLE.

MNZ060>063-068>070-281700-
   Twin Cities Metro

CITY           SKY/WX    TMP DP  RH WIND       PRES   REMARKS
TWIN CITIES    PTSUNNY   70  59  68 E13       30.06F
ST PAUL        PTSUNNY   71  60  68 S8        30.07F
CRYSTAL        PTSUNNY   72  59  63 SE8       30.05F
LAKEVILLE      CLOUDY    64  61  88 SE8       30.06F
EDEN PRAIRIE   CLOUDY    70  60  70 SE9       30.05F
SOUTH ST PAUL  PTSUNNY   70  58  67 E8        30.07F
LAKE ELMO      FAIR      70  59  68 SE10      30.09S
$$
MNZ001>005-007-008-013>017-022>024-027-028-281700-
   Northwest Minnesota

CITY           SKY/WX    TMP DP  RH WIND       PRES   REMARKS
BEMIDJI        CLOUDY    66  59  77 S10       30.04F
HALLOCK        CLOUDY    68  63  83 S14       29.94S
ROSEAU         MOSUNNY   72  63  73 S15       29.98S
WARROAD        MOSUNNY   70  63  78 S7        29.99F
THIEF RVR FALL CLOUDY    64  61  88 S8        29.99F
CROOKSTON      PTSUNNY   66  63  88 S9        29.97F
FOSSTON        PTSUNNY   64  61  88 SE6       30.02F
DETROIT LAKES  PTSUNNY   68  61  77 SE12      30.02F
MOORHEAD       PTSUNNY   70  64  83 S9        29.98F
PARK RAPIDS    CLOUDY    67  59  75 SE12      30.04F
MAHNOMEN       CLOUDY    67  61  80 S9        30.00F
$$
MNZ006-009>011-018-025>026-281700-
   North Central Minnesota

CITY           SKY/WX    TMP DP  RH WIND       PRES   REMARKS
BAUDETTE       CLOUDY    69  60  73 S13G18    30.01F
FLAG ISLAND    PTSUNNY   68  61  77 S10       29.98F
INTL FALLS     MOSUNNY   69  58  67 VRB7G17   30.05S
WASKISH        CLOUDY    66  61  82 SE3       30.03F HAZE
BIG FORK       MOSUNNY   70  57  64 S6        30.06F
LONGVILLE      CLOUDY    66  61  82 S7        30.06S
GRAND RAPIDS   SUNNY     66  57  72 S10       30.08S
CRANE LAKE     MOSUNNY   66  57  72 S5        30.09F
ORR            MOSUNNY   70  54  56 S8        30.06S
COOK           SUNNY     68  55  64 S7        30.09S
WALKER         CLOUDY    63  58  84 CALM      30.05F
$$
MNZ012-019>021-037-281700-
   Northeast Minnesota

CITY           SKY/WX    TMP DP  RH WIND       PRES   REMARKS
DULUTH         SUNNY     67  52  58 S10       30.11F
ELY            MOSUNNY   66  54  63 S9        30.10F
HIBBING        SUNNY     69  56  62 SE6       30.09F
EVELETH        SUNNY     68  54  60 S7        30.11F
DULUTH HARBOR  SUNNY     64  55  72 NE3       30.11F
TWO HARBORS    SUNNY     66  54  63 S3        30.10F
SILVER BAY     SUNNY     64  61  88 S5        30.10F
GRAND MARAIS     N/A     63  55  75 E6        30.13S
G MARAIS ARPRT SUNNY     63  52  67 SE6       30.15R
$$
MNZ029>031-032-039>041-046>048-054>057-064-281700-
   West Central Minnesota

CITY           SKY/WX    TMP DP  RH WIND       PRES   REMARKS
FERGUS FALLS   PTSUNNY   66  59  77 S10       30.00F
WHEATON        CLOUDY    63  61  94 SE10      30.00F
MORRIS         CLOUDY    70  61  73 SE13      29.99F
ALEXANDRIA     CLOUDY    67  60  78 SE13      30.04F
ELBOW LAKE     CLOUDY    67  60  79 SE14      30.01S
WADENA         PTSUNNY   66  59  77 SE8       30.03F
GLENWOOD       CLOUDY    68  61  77 SE9       30.03F
APPLETON       DRIZZLE   66  61  82 SE7       29.99S
BENSON         CLOUDY    70  61  73 S9G18     30.00F
ORTONVILLE     CLOUDY    64  61  88 SE8       29.98S
MADISON        LGT RAIN  68  64  88 SE8       29.99S
WILLMAR        FAIR      70  61  73 SE13      30.03F
$$
MNZ033>034-036-042>043-049>051-058-059-281700-
   Central Minnesota

CITY           SKY/WX    TMP DP  RH WIND       PRES   REMARKS
ST CLOUD       PTSUNNY   73  60  63 SE15G22   30.05F
SAUK CENTRE    FAIR      69  61  75 SE12G17   30.04S
PAYNESVILLE    CLOUDY    68  60  75 E10       30.05S HAZE
AITKIN         PTSUNNY   72  61  68 S7        30.07S
PINE RIVER     PTSUNNY   66  59  77 SE8       30.08F
BRAINERD       CLOUDY    68  60  75 S6        30.07S
STAPLES        CLOUDY    64  57  77 SE8       30.05S
LONG PRAIRIE   CLOUDY    66  59  77 E8        30.05S
LITTLE FALLS   CLOUDY    66  59  77 SE8       30.06S
LITCHFIELD     CLOUDY    70  63  78 SE12G17   30.04F
BUFFALO        PTSUNNY   68  59  71 SE9       30.06F
MAPLE LAKE     PTSUNNY   70  62  77 E6        30.06F
$$
MNZ037-044-045-052-053-281700-
   East Central Minnesota

CITY           SKY/WX    TMP DP  RH WIND       PRES   REMARKS
PRINCETON      PTSUNNY   72  61  68 SE7       30.08S
MORA           PTSUNNY   64  55  72 SE7       30.10F
CAMBRIDGE      PTSUNNY   72  57  60 SE7       30.06F
RUSH CITY      PTSUNNY   67  57  70 SE6       30.10S
MOOSE LAKE     MOSUNNY   68  55  64 CALM      30.08F
HINCKLEY       FAIR      64  55  72 E6        30.10F
CLOQUET        MOSUNNY   66  54  63 E5        30.11S
MCGREGOR       MOSUNNY   70  59  68 SE7       30.09F
$$
MNZ071>073-080-081-089-090-097-098-281700-
   Southwest Minnesota

CITY           SKY/WX    TMP DP  RH WIND       PRES   REMARKS
MONTEVIDEO     CLOUDY    66  63  88 S9        30.01S
GRANITE FALLS  LGT RAIN  65  62  90 SE9G16    30.01F
CANBY          LGT RAIN  65  63  93 SE9       30.00S
MARSHALL       CLOUDY    66  61  82 SE12      29.98F
REDWOOD FALLS  LGT RAIN  65  63  93 SE12      30.01S
OLIVIA         CLOUDY    68  61  77 SE9       30.01F
PIPESTONE      LGT RAIN  66  64  94 SE9       29.98S
WINDOM         RAIN      64  63  94 E9        30.00F
WORTHINGTON    CLOUDY    66  64  94 SE7       30.00S
JACKSON        DRIZZLE   64  63  94 SE9       30.01R
TRACY          DRIZZLE   67  65  94 SE8       30.00S
SLAYTON        RAIN      65  64  99 CALM      30.00F
$$
MNZ065>067-074>077-082>085-091>093-281700-
   South Central Minnesota

CITY           SKY/WX    TMP DP  RH WIND       PRES   REMARKS
MANKATO        CLOUDY    64  59  82 SE12      30.03F
NEW ULM        LGT RAIN  64  64 100 SE12      30.02F
ST JAMES       LGT RAIN  64  63  94 E9        30.02F
FAIRMONT       CLOUDY    63  61  94 SE9       30.01F
GLENCOE        CLOUDY    68  59  73 SE10      30.04S
FARIBAULT      CLOUDY    70  57  64 SE10      30.06F
OWATONNA       LGT RAIN  64  61  88 SE10      30.06F
WASECA         RAIN      61  55  82 E8        30.07F
ALBERT LEA     LGT RAIN  64  63  94 SE10      30.05F
$$
MNZ078>079-086>088-094>096-281700-
   Southeast Minnesota

CITY           SKY/WX    TMP DP  RH WIND       PRES   REMARKS
ROCHESTER      LGT RAIN  65  61  87 S13       30.10F
RED WING       CLOUDY    70  59  68 SE8       30.07F
STANTON        CLOUDY    69  61  76 SE9       30.06F
DODGE CENTER   DRIZZLE   64  63  94 SE8       30.08F
WINONA         CLOUDY    70  63  78 SE6       30.09F
AUSTIN         CLOUDY    64  63  94 SE6       30.08S
PRESTON        DRIZZLE   64  64  98 CALM      30.10S
$$
ABBREVIATIONS USED IN REMARKS
   TC - TEMPERATURES IN CELSIUS
  WCI - WIND CHILL INDEX
   HX - HEAT INDEX
  VSB - VISIBILITY
$$


USA.gov is the U.S. government's official web portal to all federal, state and local government web resources and services.